Weather Roundup
Issued by NWS

Home | Current Version | Previous Version | Text Only | Print | Product List | Glossary On
Versions: 1 2 3 4 5 6 7 8 9 10 11 12 13 14 15 16 17 18 19 20 21 22 23 24 25 26 27 28 29 30 31 32 33 34 35 36 37 38 39 40 41 42 43 44 45 46 47 48 49 50
000
NZUS93 KARX 251210
HRRWXR

CURRENT HOURLY OBSERVATIONS ACROSS
MUCH OF THE UPPER MISSISSIPPI VALLEY
NATIONAL WEATHER SERVICE LA CROSSE WI
600 AM CST SUN FEB 25 2018


...SOUTHEAST MINNESOTA...


CITY           SKY/WX    TMP DP  RH WIND       PRES   REMARKS
ROCHESTER      CLOUDY    17  15  92 W18G30    29.65R WCI   1
ROCHESTER/MAYO CLOUDY    19  16  89 W15G33    29.65R WCI   4
WINONA         CLOUDY    21  18  86 W7        29.66R WCI  13
AUSTIN         FAIR      16  12  86 SW9       29.68R WCI   4
ALBERT LEA       N/A     16  12  86 SW7       29.68R WCI   6
DODGE CENTER   MOCLDY    14  12  92 W13       29.64R WCI   0
PRESTON        CLOUDY    17  14  88 W13       29.67R WCI   3
OWATONNA       FAIR      12  10  92 SW16      29.65R WCI  -4
FARIBAULT      FAIR      16  12  86 SW7       29.65R WCI   6
$$

...ELSEWHERE IN MINNESOTA...


CITY           SKY/WX    TMP DP  RH WIND       PRES   REMARKS
MINNEAPOLIS    CLOUDY    18  15  88 W13       29.61R WCI   5
INTNL FALLS    LGT SNOW  22  20  92 NW7       29.31S FOG     WCI  13
DULUTH         CLOUDY    23  18  81 W24G32    29.31R BLWGSNOWWCI   7
RED WING       CLOUDY    19  14  79 W14       29.62R WCI   6
REDWOOD FALLS  CLEAR     13   7  77 W15       29.65R WCI  -3
MANKATO        FAIR      15  11  83 W15       29.65S WCI   0
WORTHINGTON    CLEAR     11   6  81 SW15      29.70R WCI  -5
FAIRMONT       CLEAR     12   7  80 W21       29.70R WCI  -7
$$

...SOUTHWEST WISCONSIN...


CITY           SKY/WX    TMP DP  RH WIND       PRES   REMARKS
LA CROSSE      CLOUDY    23  16  74 SW9G20    29.68R WCI  13
PRAIRIE DU CHI CLOUDY    22  16  76 W10       29.76R WCI  11
BOSCOBEL       CLOUDY    25  17  72 SW20G26   29.74R WCI  11
LONE ROCK      CLOUDY    26  20  77 W14G30    29.70R WCI  14
PLATTEVILLE    CLOUDY    27  24  86 W18G28    29.73R WCI  14
FORT MC COY    CLOUDY    22  18  84 W10G24    29.65R WCI  11
CAMP DOUGLAS   CLOUDY    24  19  81 W21G35    29.62R WCI   9
MAUSTON-NEW LI CLOUDY    24  19  81 W16G24    29.62R WCI  11
VIROQUA        CLOUDY    19  18  96 W17       29.66R WCI   4
WIS DELLS      CLOUDY    26  19  77 W12G25    29.63R WCI  15
$$

...ELSEWHERE IN WISCONSIN...


CITY           SKY/WX    TMP DP  RH WIND       PRES   REMARKS
MILWAUKEE      MOCLDY    33  23  66 W20G33    29.64R WCI  21
MADISON        MOCLDY    28  21  75 W10G23    29.66R WCI  19
GREEN BAY      CLOUDY    29  21  72 W28G38    29.49R WCI  14
EAU CLAIRE     CLOUDY    19  15  84 W18G29    29.56R FOG     WCI   4
BLACK RVR FLS  CLOUDY    22  17  79 SW5G17    29.61R WCI  16
MEDFORD        CLOUDY    19  16  87 SW20G28   29.45R FOG     WCI   4
WAUSAU         CLOUDY    22  18  85 W23G35    29.45R FOG     WCI   6
WIS RAPIDS     CLOUDY    23  17  78 MISG      29.57R
MARSHFIELD     CLOUDY    22  18  85 W21G30    29.50R WCI   6
RICE LAKE      CLOUDY    21  18  90 SW15G23   29.52R FOG     WCI   7
$$

...NORTHEAST IOWA...


CITY           SKY/WX    TMP DP  RH WIND       PRES   REMARKS
WATERLOO       FAIR      18  15  88 W14       29.79R WCI   4
DUBUQUE        CLOUDY    25  21  85 W21G28    29.74R WCI  11
DECORAH        CLOUDY    19  18  93 W13G23    29.70R WCI   7
MASON CITY     CLEAR     13  10  88 W21       29.75R WCI  -5
CHARLES CITY   MOCLDY    18  18 100 SW16G22   29.76R WCI   3
OELWEIN        CLOUDY    19  19 100 W16G23    29.78R WCI   5
$$

...ELSEWHERE IN IOWA...


CITY           SKY/WX    TMP DP  RH WIND       PRES   REMARKS
DES MOINES     CLEAR     24  17  74 W10       29.86R WCI  14
IOWA CITY      FAIR      29  22  75 W13       29.86R WCI  19
FORT DODGE     CLEAR     14   9  80 SW9       29.80R WCI   2
MARSHALLTOWN   CLEAR     22  17  81 W15       29.81R WCI   9
CEDAR RAPIDS   FAIR      26  21  81 W15       29.82R WCI  14
$$

...NORTHERN ILLINOIS...


CITY           SKY/WX    TMP DP  RH WIND       PRES   REMARKS
CHICAGO-OHARE  CLOUDY    34  25  69 W18G26    29.74R WCI  23
CHICAGO-MIDWAY CLOUDY    35  27  72 W22G32    29.77R WCI  23
MOLINE         MOCLDY    33  27  78 W13       29.83R WCI  24
ROCKFORD       MOCLDY    31  23  72 W18G31    29.75R WCI  19
PEORIA         CLOUDY    34  28  79 W13G24    29.88R WCI  25
$$

NOTE: "FAIR" INDICATES FEW OR NO CLOUDS BELOW 12,000 FEET WITH NO
SIGNIFICANT WEATHER AND/OR OBSTRUCTIONS TO VISIBILITY. WIND
SPEEDS ARE IN MILES-PER-HOUR.




USA.gov is the U.S. government's official web portal to all federal, state and local government web resources and services.